sat.trackr.live / text

‹ back to catalog

STARLINK-5924

NORAD 55963 · 2023-037BB

PAYLOAD ACTIVE UNKNOWN

§ Identity

Operator
Country
US
Launch date
2023-03-17
Launch site
AFWTR
Launch vehicle
Mass (kg)
RCS (m²)

Purposes: comms

External: N2YO · Heavens-Above · Gunter

§ Orbital elements

Epoch: 2026-09-20T08:36:19.829376Z

Period
96.11 min
Inclination
70.0029°
Eccentricity
0.0002720
Mean motion
14.98324586 rev/d
Perigee alt
570.2 km
Apogee alt
574.0 km
Semi-major
6,950.2 km
B*
1.0478e-4
RAAN
133.5923°
Arg perigee
281.6830°
Mean anomaly
78.4024°
Rev number
19,363

§ Raw data

STARLINK-59241 55963U 23037BB  26263.35856284  .00001157  00000+0  10478-3 0  99992 55963  70.0029 133.5923 0002720 281.6830  78.4024 14.98324586193630

JSON: /api/v1/satellites/55963 · /tle

For live sub-satellite position, see the globe view (requires WebGL).

§ Visibility from observer

Set your observer location to see the next 7 days of passes ≥ 10°. The values pass through the URL so the page stays shareable.

No JS? Fill the form by hand. The geolocation button needs JavaScript.